BAW799 ENTC-EGLL

Flight info

Callsign BAW799
Flight time N/A
Altitude 36000
Route AMIMO DCT GUBAV DCT VABRU DCT VEVOD DCT IPMOD DCT MITSI DCT UPGAS DCT TIPAN DCT WECOW DCT BINBO DCT AKOKO N866 BUKUT P7 BARMI
Aircraft A320/M-SDE3FGHIRWY/LB1

Departure

Time 2026-05-07 15:44
Airport Tromsø Airport (ENTC)

Arrival

Time N/A
Airport London Heathrow Airport (EGLL)
Time Latitude Longitude Altitude Speed Heading
2026-05-07 15:23 69.67979 18.90917 36 ft 0 kts 283°
2026-05-07 15:33 69.67974 18.90976 35 ft 4 kts 283°
2026-05-07 15:33 69.67968 18.91052 33 ft 4 kts 283°
2026-05-07 15:34 69.67963 18.91128 34 ft 4 kts 283°
2026-05-07 15:34 69.67957 18.91190 33 ft 4 kts 300°
2026-05-07 15:34 69.67940 18.91231 33 ft 4 kts 358°
2026-05-07 15:34 69.67914 18.91221 36 ft 3 kts 13°
2026-05-07 15:35 69.67910 18.91219 36 ft 2 kts 13°
2026-05-07 15:37 69.67922 18.91227 36 ft 4 kts 13°
2026-05-07 15:38 69.67962 18.91253 33 ft 8 kts 13°
2026-05-07 15:38 69.68029 18.91298 33 ft 12 kts 13°
2026-05-07 15:38 69.68124 18.91364 32 ft 16 kts 13°
2026-05-07 15:38 69.68242 18.91443 28 ft 19 kts 13°
2026-05-07 15:39 69.68383 18.91497 31 ft 22 kts 358°
2026-05-07 15:39 69.68537 18.91556 26 ft 23 kts 13°
2026-05-07 15:39 69.68692 18.91662 22 ft 23 kts 13°
2026-05-07 15:39 69.68777 18.91782 22 ft 13 kts 72°
2026-05-07 15:40 69.68761 18.92041 23 ft 14 kts 103°
2026-05-07 15:40 69.68817 18.92212 21 ft 14 kts 12°
2026-05-07 15:40 69.68916 18.92276 23 ft 14 kts 13°
2026-05-07 15:40 69.69020 18.92346 22 ft 17 kts 13°
2026-05-07 15:41 69.69139 18.92427 23 ft 18 kts 13°
2026-05-07 15:41 69.69270 18.92511 22 ft 20 kts 12°
2026-05-07 15:41 69.69357 18.92529 22 ft 11 kts
2026-05-07 15:41 69.69343 18.92652 22 ft 10 kts 193°
2026-05-07 15:42 69.69297 18.92528 22 ft 9 kts 195°
2026-05-07 15:42 69.69261 18.92507 22 ft 0 kts 192°
2026-05-07 15:43 69.69044 18.92377 26 ft 68 kts 191°
2026-05-07 15:43 69.68373 18.91909 27 ft 125 kts 193°
2026-05-07 15:43 69.67404 18.91257 89 ft 160 kts 195°
2026-05-07 15:43 69.66347 18.90378 622 ft 157 kts 197°
2026-05-07 15:44 69.65291 18.89466 1080 ft 165 kts 196°
2026-05-07 15:44 69.64138 18.88560 1401 ft 176 kts 193°
2026-05-07 15:44 69.62926 18.87795 1808 ft 181 kts 191°
2026-05-07 15:44 69.61670 18.87150 2272 ft 185 kts 188°
2026-05-07 15:45 69.60387 18.86559 2760 ft 188 kts 189°
2026-05-07 15:45 69.59093 18.85902 3263 ft 190 kts 190°
2026-05-07 15:45 69.57817 18.84881 3766 ft 192 kts 205°
2026-05-07 15:45 69.56626 18.83192 4297 ft 192 kts 207°
2026-05-07 15:46 69.54149 18.79465 5151 ft 209 kts 209°
2026-05-07 15:46 69.52862 18.77426 5642 ft 214 kts 210°
2026-05-07 15:46 69.51555 18.75278 6165 ft 219 kts 211°
2026-05-07 15:47 69.50234 18.73029 6701 ft 224 kts 212°
2026-05-07 15:47 69.48868 18.70625 7101 ft 238 kts 212°
2026-05-07 15:47 69.47433 18.68051 7598 ft 248 kts 210°
2026-05-07 15:47 69.45886 18.65749 8230 ft 253 kts 207°
2026-05-07 15:48 69.44311 18.63465 8964 ft 255 kts 207°
2026-05-07 15:48 69.42652 18.61242 9334 ft 275 kts 204°
2026-05-07 15:48 69.40827 18.59011 9676 ft 293 kts 203°
2026-05-07 15:48 69.38937 18.56664 10204 ft 304 kts 204°
2026-05-07 15:49 69.36939 18.54065 10366 ft 327 kts 205°
2026-05-07 15:49 69.34831 18.51182 10608 ft 344 kts 206°
2026-05-07 15:49 69.32665 18.48125 11165 ft 350 kts 206°
2026-05-07 15:49 69.30450 18.45163 11804 ft 354 kts 205°
2026-05-07 15:50 69.28189 18.42304 12433 ft 357 kts 204°
2026-05-07 15:50 69.25905 18.39508 13038 ft 360 kts 203°
2026-05-07 15:50 69.23588 18.36709 13653 ft 363 kts 203°
2026-05-07 15:50 69.21284 18.33926 14250 ft 367 kts 203°
2026-05-07 15:51 69.18902 18.31037 14835 ft 370 kts 203°
2026-05-07 15:51 69.16528 18.28143 15394 ft 373 kts 204°
2026-05-07 15:51 69.14168 18.25250 15941 ft 376 kts 204°
2026-05-07 15:51 69.11764 18.22301 16473 ft 379 kts 204°
2026-05-07 15:52 69.09341 18.19336 17011 ft 382 kts 204°
2026-05-07 15:52 69.06895 18.16349 17544 ft 385 kts 204°
2026-05-07 15:52 69.04432 18.13355 18077 ft 388 kts 204°
2026-05-07 15:52 69.01949 18.10352 18607 ft 391 kts 203°
2026-05-07 15:53 68.99447 18.07339 19138 ft 394 kts 203°
2026-05-07 15:53 68.96919 18.04300 19670 ft 397 kts 203°
2026-05-07 15:53 68.94370 18.01239 20201 ft 400 kts 203°
2026-05-07 15:53 68.91809 17.98168 20702 ft 403 kts 203°
2026-05-07 15:54 68.89249 17.94957 21178 ft 406 kts 208°
2026-05-07 15:54 68.86773 17.91114 21641 ft 409 kts 210°
2026-05-07 15:54 68.84288 17.87240 22089 ft 411 kts 210°
2026-05-07 15:54 68.81783 17.83349 22528 ft 414 kts 209°
2026-05-07 15:55 68.79258 17.79438 22962 ft 417 kts 209°
2026-05-07 15:55 68.76718 17.75516 23375 ft 419 kts 209°
2026-05-07 15:55 68.74157 17.71581 23789 ft 422 kts 209°
2026-05-07 15:55 68.71587 17.67636 24190 ft 425 kts 209°
2026-05-07 15:56 68.68997 17.63667 24567 ft 427 kts 209°
2026-05-07 15:56 68.66392 17.59689 24944 ft 430 kts 209°
2026-05-07 15:56 68.63806 17.55752 25303 ft 432 kts 209°
2026-05-07 15:56 68.61138 17.51698 25658 ft 434 kts 209°
2026-05-07 15:57 68.58525 17.47743 25995 ft 436 kts 209°
2026-05-07 15:57 68.55857 17.43721 26322 ft 438 kts 209°
2026-05-07 15:57 68.53180 17.39693 26648 ft 441 kts 209°
2026-05-07 15:57 68.50484 17.35643 26976 ft 443 kts 209°
2026-05-07 15:58 68.47775 17.31583 27289 ft 445 kts 209°
2026-05-07 15:58 68.45055 17.27518 27602 ft 447 kts 209°
2026-05-07 15:58 68.42319 17.23444 27914 ft 449 kts 209°
2026-05-07 15:58 68.39570 17.19363 28214 ft 451 kts 209°
2026-05-07 15:59 68.36810 17.15278 28530 ft 453 kts 208°
2026-05-07 15:59 68.34057 17.11217 28956 ft 451 kts 208°
2026-05-07 15:59 68.31295 17.07157 29374 ft 450 kts 208°
2026-05-07 15:59 68.28545 17.03123 29776 ft 449 kts 208°
2026-05-07 16:00 68.25797 16.99100 30179 ft 449 kts 208°
2026-05-07 16:00 68.23097 16.95157 30574 ft 448 kts 208°
2026-05-07 16:00 68.20359 16.91166 30969 ft 447 kts 208°
2026-05-07 16:00 68.17619 16.87182 31354 ft 446 kts 208°
2026-05-07 16:01 68.14891 16.83228 31737 ft 446 kts 208°
2026-05-07 16:01 68.12165 16.79295 32128 ft 445 kts 208°
2026-05-07 16:01 68.09435 16.75370 32500 ft 444 kts 208°
2026-05-07 16:01 68.06705 16.71452 32870 ft 444 kts 208°
2026-05-07 16:02 68.03994 16.67560 33243 ft 443 kts 208°
2026-05-07 16:02 68.01287 16.63677 33603 ft 442 kts 208°
2026-05-07 16:02 67.98573 16.59795 33954 ft 441 kts 208°
2026-05-07 16:02 67.95869 16.55944 34272 ft 441 kts 208°
2026-05-07 16:03 67.94080 16.53400 34482 ft 440 kts 208°
2026-05-07 16:03 67.91373 16.49569 34782 ft 440 kts 208°
2026-05-07 16:03 67.88674 16.45771 35078 ft 439 kts 208°
2026-05-07 16:03 67.85966 16.42020 35352 ft 439 kts 207°
2026-05-07 16:04 67.83240 16.38392 35628 ft 438 kts 206°
2026-05-07 16:04 67.79609 16.33715 35946 ft 438 kts 206°
2026-05-07 16:04 67.77750 16.31351 36008 ft 439 kts 206°
2026-05-07 16:05 67.72178 16.24268 36027 ft 450 kts 206°
2026-05-07 16:05 67.66541 16.17036 36027 ft 454 kts 206°
2026-05-07 16:06 67.60856 16.09748 36026 ft 455 kts 206°
2026-05-07 16:06 67.55159 16.02514 36026 ft 455 kts 206°
2026-05-07 16:07 67.49451 15.95311 36029 ft 455 kts 206°
2026-05-07 16:07 67.43753 15.88125 36033 ft 455 kts 206°
2026-05-07 16:08 67.38079 15.81017 36037 ft 456 kts 206°
2026-05-07 16:08 67.32363 15.73918 36049 ft 456 kts 205°
2026-05-07 16:09 67.26637 15.66838 36048 ft 456 kts 206°
2026-05-07 16:09 67.20915 15.59781 36044 ft 456 kts 205°
2026-05-07 16:10 67.15192 15.52786 36042 ft 456 kts 205°
2026-05-07 16:10 67.09462 15.45808 36043 ft 456 kts 205°
2026-05-07 16:11 67.03723 15.38853 36038 ft 456 kts 205°
2026-05-07 16:11 66.97989 15.31953 36038 ft 456 kts 205°
2026-05-07 16:12 66.92258 15.25078 36037 ft 455 kts 205°
2026-05-07 16:12 66.86514 15.18227 36043 ft 455 kts 205°
2026-05-07 16:13 66.80783 15.11429 36037 ft 455 kts 205°
2026-05-07 16:13 66.75034 15.04656 36035 ft 455 kts 205°
2026-05-07 16:14 66.69290 14.97916 36046 ft 455 kts 205°
2026-05-07 16:14 66.63581 14.91249 36038 ft 455 kts 205°
2026-05-07 16:15 66.57823 14.84533 36039 ft 456 kts 205°
2026-05-07 16:15 66.52064 14.77865 36048 ft 456 kts 205°
2026-05-07 16:16 66.46295 14.71257 36044 ft 456 kts 205°
2026-05-07 16:16 66.40522 14.64665 36049 ft 456 kts 205°
2026-05-07 16:17 66.34748 14.58093 36050 ft 456 kts 205°
2026-05-07 16:17 66.28967 14.51518 36043 ft 456 kts 205°
2026-05-07 16:18 66.23190 14.44978 36047 ft 456 kts 204°
2026-05-07 16:18 66.17442 14.38540 36049 ft 456 kts 204°
2026-05-07 16:19 66.11660 14.32116 36049 ft 456 kts 204°
2026-05-07 16:19 66.05880 14.25706 36053 ft 456 kts 204°
2026-05-07 16:20 66.00092 14.19301 36041 ft 456 kts 204°
2026-05-07 16:20 65.94308 14.12932 36045 ft 456 kts 204°
2026-05-07 16:21 65.88515 14.06605 36043 ft 455 kts 204°
2026-05-07 16:21 65.82728 14.00311 36039 ft 455 kts 204°
2026-05-07 16:22 65.76943 13.94040 36045 ft 455 kts 204°
2026-05-07 16:22 65.71123 13.87894 36042 ft 455 kts 203°
2026-05-07 16:23 65.65299 13.81877 36048 ft 455 kts 203°
2026-05-07 16:23 65.59457 13.75878 36042 ft 455 kts 203°
2026-05-07 16:24 65.53671 13.69919 36038 ft 455 kts 203°
2026-05-07 16:24 65.47834 13.63919 36040 ft 456 kts 203°
2026-05-07 16:25 65.41995 13.57953 36041 ft 456 kts 203°
2026-05-07 16:25 65.36157 13.52022 36046 ft 455 kts 203°
2026-05-07 16:26 65.30324 13.46119 36042 ft 455 kts 203°
2026-05-07 16:26 65.24484 13.40245 36048 ft 455 kts 202°
2026-05-07 16:27 65.18692 13.34463 36036 ft 455 kts 202°
2026-05-07 16:27 65.12849 13.28653 36036 ft 454 kts 202°
2026-05-07 16:28 65.07019 13.22874 36036 ft 454 kts 202°
2026-05-07 16:28 65.01167 13.17229 36034 ft 454 kts 201°
2026-05-07 16:29 64.95281 13.11753 36034 ft 454 kts 201°
2026-05-07 16:29 64.89399 13.06321 36035 ft 454 kts 201°
2026-05-07 16:30 64.83507 13.00853 36041 ft 455 kts 201°
2026-05-07 16:30 64.77610 12.95395 36042 ft 455 kts 201°
2026-05-07 16:31 64.71750 12.90011 36045 ft 455 kts 201°
2026-05-07 16:31 64.65851 12.84614 36046 ft 455 kts 201°
2026-05-07 16:32 64.59956 12.79249 36046 ft 455 kts 201°
2026-05-07 16:32 64.54056 12.73887 36044 ft 455 kts 201°
2026-05-07 16:33 64.48154 12.68543 36037 ft 455 kts 201°
2026-05-07 16:33 64.42251 12.63243 36037 ft 455 kts 201°
2026-05-07 16:34 64.36348 12.57963 36044 ft 455 kts 201°
2026-05-07 16:34 64.30491 12.52742 36037 ft 454 kts 201°
2026-05-07 16:35 64.24589 12.47512 36036 ft 455 kts 201°
2026-05-07 16:35 64.18681 12.42303 36037 ft 455 kts 201°
2026-05-07 16:36 64.12765 12.37111 36037 ft 455 kts 201°
2026-05-07 16:36 64.06863 12.31947 36037 ft 455 kts 201°
2026-05-07 16:37 64.00950 12.26797 36038 ft 455 kts 201°
2026-05-07 16:37 63.95035 12.21660 36048 ft 455 kts 201°
2026-05-07 16:38 63.89115 12.16554 36039 ft 455 kts 200°
2026-05-07 16:38 63.83190 12.11482 36044 ft 455 kts 200°
2026-05-07 16:39 63.77268 12.06429 36038 ft 455 kts 200°
2026-05-07 16:39 63.71386 12.01414 36045 ft 455 kts 200°
2026-05-07 16:40 63.65458 11.96384 36045 ft 455 kts 200°
2026-05-07 16:40 63.59522 11.91374 36045 ft 455 kts 200°
2026-05-07 16:41 63.53595 11.86393 36047 ft 455 kts 200°
2026-05-07 16:41 63.47657 11.81429 36053 ft 455 kts 200°
2026-05-07 16:42 63.41714 11.76486 36045 ft 455 kts 200°
2026-05-07 16:42 63.35780 11.71568 36046 ft 455 kts 200°
2026-05-07 16:43 63.29845 11.66680 36039 ft 455 kts 200°
2026-05-07 16:43 63.23912 11.61808 36036 ft 454 kts 200°
2026-05-07 16:44 63.18018 11.56970 36038 ft 455 kts 200°
2026-05-07 16:44 63.12079 11.52147 36049 ft 455 kts 200°
2026-05-07 16:45 63.06136 11.47338 36037 ft 455 kts 200°
2026-05-07 16:45 63.00194 11.42547 36036 ft 455 kts 200°
2026-05-07 16:46 62.94258 11.37771 36038 ft 454 kts 200°
2026-05-07 16:46 62.88311 11.33000 36037 ft 455 kts 200°
2026-05-07 16:47 62.82401 11.28097 36035 ft 454 kts 206°
2026-05-07 16:47 62.76759 11.22019 36036 ft 454 kts 206°
2026-05-07 16:48 62.71092 11.15927 36045 ft 454 kts 206°
2026-05-07 16:48 62.65411 11.09876 36042 ft 455 kts 206°
2026-05-07 16:49 62.59723 11.03829 36050 ft 455 kts 206°
2026-05-07 16:49 62.54043 10.97803 36043 ft 455 kts 206°
2026-05-07 16:50 62.48344 10.91791 36045 ft 455 kts 206°
2026-05-07 16:50 62.42644 10.85813 36041 ft 455 kts 206°
2026-05-07 16:51 62.36941 10.79856 36052 ft 455 kts 206°
2026-05-07 16:51 62.31242 10.73918 36048 ft 455 kts 206°
2026-05-07 16:52 62.25566 10.68035 36053 ft 455 kts 206°
2026-05-07 16:52 62.19861 10.62149 36045 ft 455 kts 206°
2026-05-07 16:53 62.14155 10.56280 36050 ft 455 kts 206°
2026-05-07 16:53 62.08446 10.50424 36043 ft 455 kts 206°
2026-05-07 16:54 62.02745 10.44604 36042 ft 455 kts 206°
2026-05-07 16:54 61.97997 10.39787 36042 ft 455 kts 205°
2026-05-07 16:55 61.92276 10.34010 36043 ft 455 kts 205°
2026-05-07 16:55 61.86564 10.28256 36049 ft 455 kts 205°
2026-05-07 16:56 61.80841 10.22510 36037 ft 455 kts 205°
2026-05-07 16:56 61.72262 10.13944 36037 ft 455 kts 205°
2026-05-07 16:57 61.66543 10.08247 36042 ft 455 kts 205°
2026-05-07 16:57 61.60821 10.02592 36036 ft 455 kts 205°
2026-05-07 16:58 61.55093 9.96962 36051 ft 454 kts 205°
2026-05-07 16:58 61.49398 9.91377 36047 ft 454 kts 205°
2026-05-07 16:59 61.43673 9.85778 36036 ft 454 kts 205°
2026-05-07 16:59 61.37940 9.80195 36038 ft 455 kts 205°
2026-05-07 17:00 61.32206 9.74639 36047 ft 455 kts 205°
2026-05-07 17:00 61.26468 9.69098 36037 ft 454 kts 205°
2026-05-07 17:01 61.20732 9.63586 36041 ft 454 kts 205°
2026-05-07 17:01 61.14984 9.58082 36037 ft 454 kts 205°
2026-05-07 17:02 61.09249 9.52606 36037 ft 454 kts 205°
2026-05-07 17:02 61.03546 9.47197 36037 ft 454 kts 205°
2026-05-07 17:03 60.97786 9.41769 36046 ft 454 kts 205°
2026-05-07 17:03 60.92039 9.36340 36042 ft 454 kts 205°
2026-05-07 17:04 60.86287 9.30929 36037 ft 455 kts 205°
2026-05-07 17:04 60.80530 9.25546 36043 ft 455 kts 204°
2026-05-07 17:05 60.74767 9.20188 36040 ft 455 kts 204°
2026-05-07 17:05 60.69044 9.14893 36048 ft 455 kts 204°
2026-05-07 17:06 60.63269 9.09572 36047 ft 455 kts 204°
2026-05-07 17:06 60.57503 9.04261 36051 ft 455 kts 204°
2026-05-07 17:07 60.51744 8.98968 36043 ft 455 kts 204°
2026-05-07 17:07 60.45973 8.93690 36037 ft 454 kts 204°
2026-05-07 17:08 60.40210 8.88452 36045 ft 454 kts 204°
2026-05-07 17:08 60.34443 8.83239 36036 ft 454 kts 204°
2026-05-07 17:09 60.28673 8.78038 36036 ft 454 kts 204°
2026-05-07 17:09 60.22935 8.72869 36037 ft 454 kts 204°
2026-05-07 17:10 60.17160 8.67692 36037 ft 454 kts 204°
2026-05-07 17:10 60.11379 8.62530 36041 ft 454 kts 204°
2026-05-07 17:11 60.05610 8.57420 36036 ft 454 kts 204°
2026-05-07 17:11 59.99876 8.52352 36035 ft 454 kts 204°
2026-05-07 17:12 59.94100 8.47253 36035 ft 454 kts 204°
2026-05-07 17:12 59.88318 8.42179 36038 ft 454 kts 204°
2026-05-07 17:13 59.82533 8.37117 36038 ft 454 kts 204°
2026-05-07 17:13 59.76737 8.32067 36037 ft 454 kts 204°
2026-05-07 17:14 59.70920 8.27198 36038 ft 454 kts 201°
2026-05-07 17:14 59.64979 8.22887 36048 ft 454 kts 199°
2026-05-07 17:15 59.59015 8.18759 36038 ft 454 kts 199°
2026-05-07 17:15 59.53069 8.14528 36045 ft 454 kts 200°
2026-05-07 17:16 59.47132 8.10242 36049 ft 454 kts 200°
2026-05-07 17:16 59.41233 8.05995 36042 ft 454 kts 200°
2026-05-07 17:17 59.35294 8.01749 36039 ft 455 kts 200°
2026-05-07 17:17 59.29348 7.97530 36049 ft 455 kts 200°
2026-05-07 17:18 59.23400 7.93335 36040 ft 455 kts 200°
2026-05-07 17:18 59.17452 7.89139 36047 ft 455 kts 200°
2026-05-07 17:19 59.11503 7.84934 36047 ft 455 kts 200°
2026-05-07 17:19 59.05550 7.80749 36042 ft 455 kts 200°
2026-05-07 17:20 58.99596 7.76595 36052 ft 455 kts 200°
2026-05-07 17:20 58.93639 7.72464 36052 ft 455 kts 200°
2026-05-07 17:21 58.87686 7.68337 36047 ft 455 kts 200°
2026-05-07 17:21 58.81720 7.64222 36040 ft 455 kts 199°
2026-05-07 17:22 58.75761 7.60132 36039 ft 454 kts 199°
2026-05-07 17:22 58.69808 7.56032 36045 ft 454 kts 199°
2026-05-07 17:23 58.63852 7.51968 36047 ft 454 kts 199°
2026-05-07 17:23 58.57887 7.47918 36041 ft 454 kts 199°
2026-05-07 17:24 58.51933 7.43876 36038 ft 454 kts 199°
2026-05-07 17:24 58.46020 7.39882 36043 ft 454 kts 199°
2026-05-07 17:25 58.40057 7.35861 36049 ft 454 kts 199°
2026-05-07 17:25 58.34099 7.31855 36037 ft 454 kts 199°
2026-05-07 17:26 58.28130 7.27888 36036 ft 454 kts 199°
2026-05-07 17:26 58.22165 7.23927 36037 ft 454 kts 199°
2026-05-07 17:27 58.16240 7.19993 36038 ft 454 kts 199°
2026-05-07 17:27 58.10279 7.16045 36037 ft 454 kts 199°
2026-05-07 17:28 58.04318 7.12113 36036 ft 453 kts 199°
2026-05-07 17:28 57.98351 7.08194 36036 ft 453 kts 199°
2026-05-07 17:29 57.92386 7.04294 36037 ft 454 kts 199°
2026-05-07 17:29 57.86419 7.00407 36045 ft 454 kts 199°
2026-05-07 17:30 57.80453 6.96530 36037 ft 454 kts 199°
2026-05-07 17:30 57.74483 6.92668 36043 ft 454 kts 199°
2026-05-07 17:31 57.68556 6.88855 36037 ft 454 kts 199°
2026-05-07 17:31 57.62576 6.85012 36045 ft 454 kts 199°